• In Hungary
  • List of Countries
  • For 7 days
  • Water Temperature
  • Satellite Maps
  • Weather Map
  • News
  • Weather Widgets
  • user-avatar
    Login

    Hourly Weather Dorchester

    Today, 22 February, Thursday

    Time Temperature Precipitation Wind Pressure Humidity
    00:00 +1°C° 0 mm 2 mps 764 mmHg 95%
    01:00 +1°C° 0 mm 2 mps 763 mmHg 95%
    02:00 +1°C° 0 mm 2 mps 763 mmHg 95%
    03:00 -1°C° 0 mm 2 mps 763 mmHg 96%
    04:00 -1°C° 0 mm 2 mps 763 mmHg 95%
    05:00 -1°C° 0 mm 2 mps 763 mmHg 95%
    06:00 -1°C° 0 mm 2 mps 763 mmHg 95%
    07:00 0°C° 0 mm 3 mps 763 mmHg 90%
    08:00 0°C° 0 mm 3 mps 763 mmHg 85%
    09:00 +1°C° 0 mm 3 mps 763 mmHg 80%
    10:00 +1°C° 0 mm 4 mps 763 mmHg 75%
    11:00 +3°C° 0 mm 4 mps 763 mmHg 70%
    12:00 +4°C° 0 mm 4 mps 763 mmHg 65%
    13:00 +4°C° 0 mm 4 mps 763 mmHg 64%
    14:00 +4°C° 0 mm 4 mps 763 mmHg 64%
    15:00 +4°C° 0 mm 4 mps 762 mmHg 63%
    16:00 +3°C° 0 mm 4 mps 762 mmHg 67%
    17:00 +2°C° 0 mm 3 mps 762 mmHg 72%
    18:00 0°C° 0 mm 3 mps 762 mmHg 77%
    19:00 0°C° 0 mm 3 mps 762 mmHg 77%
    20:00 -1°C° 0 mm 3 mps 762 mmHg 78%
    21:00 -1°C° 0 mm 3 mps 762 mmHg 78%
    22:00 -1°C° 0 mm 3 mps 762 mmHg 79%
    23:00 -1°C° 0 mm 3 mps 762 mmHg 79%

    Tomorrow, 23 February, Friday

    Time Temperature Precipitation Wind Pressure Humidity
    00:00 -2°C° 0 mm 2 mps 762 mmHg 80%
    01:00 -2°C° 0 mm 2 mps 762 mmHg 81%
    02:00 -2°C° 0 mm 2 mps 762 mmHg 82%
    03:00 -2°C° 0 mm 2 mps 762 mmHg 83%
    04:00 -2°C° 0 mm 2 mps 762 mmHg 84%
    05:00 -2°C° 0 mm 3 mps 762 mmHg 84%
    06:00 -2°C° 0 mm 3 mps 762 mmHg 84%
    07:00 -2°C° 0 mm 4 mps 762 mmHg 78%
    08:00 -1°C° 0 mm 5 mps 762 mmHg 72%
    09:00 -1°C° 0 mm 6 mps 762 mmHg 67%
    10:00 +1°C° 0 mm 6 mps 761 mmHg 63%
    11:00 +2°C° 0 mm 6 mps 761 mmHg 59%
    12:00 +3°C° 0 mm 6 mps 761 mmHg 55%
    13:00 +3°C° 0 mm 6 mps 761 mmHg 55%
    14:00 +3°C° 0 mm 6 mps 760 mmHg 55%
    15:00 +3°C° 0 mm 6 mps 760 mmHg 54%
    16:00 +2°C° 0 mm 5 mps 760 mmHg 59%
    17:00 +1°C° 0 mm 5 mps 759 mmHg 64%
    18:00 -1°C° 0 mm 4 mps 759 mmHg 69%
    19:00 -1°C° 0 mm 4 mps 759 mmHg 71%
    20:00 -2°C° 0 mm 4 mps 759 mmHg 72%
    21:00 -3°C° 0 mm 4 mps 759 mmHg 74%
    22:00 -3°C° 0 mm 4 mps 759 mmHg 73%
    23:00 -3°C° 0 mm 4 mps 759 mmHg 71%

    Day after tomorrow, 24 February, Saturday

    Time Temperature Precipitation Wind Pressure Humidity
    00:00 -2°C° 0 mm 3 mps 759 mmHg 70%
    01:00 -2°C° 0 mm 3 mps 759 mmHg 69%
    02:00 -2°C° 0 mm 3 mps 759 mmHg 69%
    03:00 -2°C° 0 mm 3 mps 759 mmHg 68%
    04:00 -2°C° 0 mm 3 mps 759 mmHg 68%
    05:00 -3°C° 0 mm 4 mps 759 mmHg 68%
    06:00 -3°C° 0 mm 4 mps 759 mmHg 68%
    07:00 -2°C° 0 mm 4 mps 760 mmHg 66%
    08:00 -1°C° 0 mm 5 mps 760 mmHg 64%
    09:00 -2°C° 0 mm 6 mps 760 mmHg 61%
    10:00 +1°C° 0 mm 6 mps 760 mmHg 60%
    11:00 +2°C° 0 mm 6 mps 760 mmHg 58%
    12:00 +3°C° 0 mm 6 mps 760 mmHg 56%
    13:00 +3°C° 0 mm 6 mps 760 mmHg 56%
    14:00 +3°C° 0 mm 6 mps 760 mmHg 57%
    15:00 +3°C° 0 mm 6 mps 760 mmHg 57%
    16:00 +2°C° 0 mm 6 mps 760 mmHg 60%
    17:00 +1°C° 0 mm 5 mps 760 mmHg 63%
    18:00 -1°C° 0 mm 5 mps 761 mmHg 65%
    19:00 -1°C° 0 mm 5 mps 761 mmHg 64%
    20:00 -2°C° 0 mm 5 mps 761 mmHg 63%
    21:00 -2°C° 0 mm 5 mps 762 mmHg 62%
    22:00 -2°C° 0 mm 5 mps 762 mmHg 63%
    23:00 -2°C° 0 mm 5 mps 762 mmHg 63%

    25 February, Sunday

    Time Temperature Precipitation Wind Pressure Humidity
    00:00 -2°C° 0 mm 5 mps 762 mmHg 64%
    01:00 -2°C° 0 mm 5 mps 762 mmHg 66%
    02:00 -2°C° 0 mm 4 mps 763 mmHg 68%
    03:00 -2°C° 0 mm 4 mps 763 mmHg 70%
    04:00 -2°C° 0 mm 5 mps 763 mmHg 72%
    05:00 -4°C° 0 mm 5 mps 763 mmHg 74%
    06:00 -4°C° 0 mm 5 mps 763 mmHg 76%
    07:00 -3°C° 0 mm 6 mps 764 mmHg 70%
    08:00 -2°C° 0 mm 6 mps 764 mmHg 65%
    09:00 -2°C° 0 mm 7 mps 765 mmHg 59%
    10:00 -1°C° 0 mm 7 mps 765 mmHg 55%
    11:00 0°C° 0 mm 7 mps 765 mmHg 51%
    12:00 +2°C° 0 mm 7 mps 765 mmHg 47%
    13:00 +2°C° 0 mm 7 mps 765 mmHg 47%
    14:00 +2°C° 0 mm 7 mps 765 mmHg 47%
    15:00 +2°C° 0 mm 7 mps 765 mmHg 46%
    16:00 +1°C° 0 mm 6 mps 766 mmHg 50%
    17:00 -2°C° 0 mm 6 mps 766 mmHg 53%
    18:00 -2°C° 0 mm 5 mps 766 mmHg 57%
    19:00 -4°C° 0 mm 5 mps 767 mmHg 58%
    20:00 -4°C° 0 mm 5 mps 767 mmHg 60%
    21:00 -4°C° 0 mm 5 mps 767 mmHg 61%
    22:00 -4°C° 0 mm 5 mps 767 mmHg 61%
    23:00 -4°C° 0 mm 4 mps 767 mmHg 61%

    26 February, Monday

    Time Temperature Precipitation Wind Pressure Humidity
    00:00 -4°C° 0 mm 4 mps 768 mmHg 61%
    01:00 -4°C° 0 mm 4 mps 768 mmHg 61%
    02:00 -4°C° 0 mm 4 mps 767 mmHg 61%
    03:00 -4°C° 0 mm 4 mps 767 mmHg 60%
    04:00 -5°C° 0 mm 4 mps 767 mmHg 60%
    05:00 -5°C° 0 mm 3 mps 767 mmHg 60%
    06:00 -5°C° 0 mm 3 mps 767 mmHg 60%
    07:00 -4°C° 0 mm 4 mps 767 mmHg 56%
    08:00 -4°C° 0 mm 5 mps 768 mmHg 51%
    09:00 -2°C° 0 mm 5 mps 768 mmHg 47%
    10:00 -1°C° 0 mm 5 mps 768 mmHg 46%
    11:00 0°C° 0 mm 5 mps 768 mmHg 45%
    12:00 +1°C° 0 mm 5 mps 768 mmHg 43%
    13:00 +1°C° 0 mm 5 mps 767 mmHg 45%
    14:00 +1°C° 0 mm 5 mps 767 mmHg 46%
    15:00 +1°C° 0 mm 5 mps 767 mmHg 47%
    16:00 0°C° 0 mm 5 mps 766 mmHg 53%
    17:00 -2°C° 0 mm 4 mps 766 mmHg 58%
    18:00 -2°C° 0 mm 3 mps 766 mmHg 64%
    19:00 -2°C° 0 mm 3 mps 766 mmHg 66%
    20:00 -4°C° 0 mm 3 mps 766 mmHg 68%
    21:00 -4°C° 0 mm 3 mps 766 mmHg 70%
    22:00 -5°C° 0 mm 3 mps 766 mmHg 72%
    23:00 -5°C° 0 mm 3 mps 766 mmHg 73%

    27 February, Tuesday

    Time Temperature Precipitation Wind Pressure Humidity
    00:00 -5°C° 0 mm 3 mps 766 mmHg 75%
    01:00 -5°C° 0 mm 3 mps 766 mmHg 77%
    02:00 -5°C° 0 mm 3 mps 765 mmHg 79%
    03:00 -5°C° 0 mm 3 mps 765 mmHg 82%
    04:00 -5°C° 0 mm 3 mps 765 mmHg 83%
    05:00 -5°C° 0 mm 3 mps 765 mmHg 84%
    06:00 -5°C° 0 mm 3 mps 764 mmHg 85%
    07:00 -4°C° 0 mm 3 mps 764 mmHg 78%
    08:00 -3°C° 0 mm 4 mps 764 mmHg 71%
    09:00 -2°C° 0 mm 4 mps 764 mmHg 64%
    10:00 -2°C° 0 mm 4 mps 764 mmHg 57%
    11:00 -1°C° 0 mm 4 mps 764 mmHg 51%
    12:00 0°C° 0 mm 5 mps 763 mmHg 45%
    13:00 0°C° 0 mm 4 mps 763 mmHg 46%
    14:00 +1°C° 0 mm 4 mps 763 mmHg 46%
    15:00 +1°C° 0 mm 4 mps 762 mmHg 47%
    16:00 0°C° 0 mm 3 mps 762 mmHg 55%
    17:00 -1°C° 0 mm 3 mps 762 mmHg 63%
    18:00 -2°C° 0 mm 2 mps 762 mmHg 71%
    19:00 -2°C° 0 mm 2 mps 762 mmHg 75%
    20:00 -3°C° 0 mm 2 mps 762 mmHg 79%
    21:00 -3°C° 0 mm 2 mps 762 mmHg 84%
    22:00 -3°C° 0.1 mm 2 mps 761 mmHg 82%
    23:00 -3°C° 0.1 mm 2 mps 761 mmHg 81%
    Show more